{"data":{"norad_id":67541,"intl_designator":"2026-014K","name":"STARLINK-36579","alt_names":[],"object_type":"PAYLOAD","status":"ACTIVE","operator":null,"country":"US","launch_date":"2026-01-22","launch_site_code":"AFWTR","launch_vehicle":null,"mission":null,"orbit_class":"UNKNOWN","rcs_meters":null,"size_class":null,"mass_kg":null,"dimensions":null,"purposes":["comms"],"wikipedia_slug":null,"has_3d_model":false,"image_url":null,"decayed_at":null,"tle_current":{"epoch":"2026-09-18T22:25:58.828224Z","epoch_age_seconds":207510,"freshness":"STALE","line1":"1 67541U 26014K   26261.93470866  .00021044  00000+0  65236-3 0  9991","line2":"2 67541  97.2838 147.4029 0001182  77.4322 282.7053 15.33444681 38407","mean_motion":15.33444681,"eccentricity":0.0001182,"inclination_deg":97.2838,"raan_deg":147.4029,"arg_perigee_deg":77.4322,"mean_anomaly_deg":282.7053,"bstar":0.00065236,"rev_number":3840,"period_min":93.90622419199,"perigee_km":464.73520048905,"apogee_km":466.35304670667,"semimajor_km":6843.6811235979,"source":"CELESTRAK","updated_at":"2026-09-20T09:00:43.568206Z"}}}